Helicity
38 13 24 34 35 43 45 24 31 11 105 60 -19 -9 147 128 63 88 238 42 110 75 49 85 100 73 131 164 98 69 106 97 64 22 39 39 3 38 26 26 33 21 67 73
14 38 28 22 16 12 11 22 6 16 68 39 -12 -33 -10 106 113 90 167 79 88 84 28 123 78 72 134 195 135 88 101 102 32 0 -3 -21 -36 -55 -44 10 39 23 41 52
26 31 53 38 0 8 -2 3 16 26 51 32 -13 69 117 -6 77 65 105 141 102 116 141 118 76 74 143 239 191 122 60 72 17 -26 -24 -27 -23 0 -15 -63 -22 -20 -62 28
17 19 14 11 23 3 -2 10 38 32 47 3 74 29 174 160 79 -93 86 56 160 135 60 118 82 55 93 277 218 134 72 60 -30 -6 12 -4 18 1 -27 11 -18 -45 -42 -10
-2 20 7 -9 -4 25 -2 13 35 53 14 10 44 112 87 112 49 -37 72 73 32 162 199 138 178 18 76 298 286 187 98 62 -1 -33 -14 19 -14 3 0 -25 14 -6 3 -27
-6 4 -7 8 21 -1 -5 -2 -9 26 37 36 74 -13 193 65 15 160 85 66 89 75 216 122 135 22 106 257 269 260 131 77 21 -19 -16 19 -42 -45 -41 -18 11 23 41 -2
61 90 56 12 33 2 1 14 15 37 75 43 38 19 28 61 60 40 49 29 101 95 181 145 148 119 83 242 279 283 158 97 43 35 7 13 -33 -47 -17 -34 -18 37 19 38
-26 14 122 57 50 -22 13 14 -3 -13 -5 6 51 -25 42 67 49 22 47 48 30 86 74 199 184 36 114 212 347 257 197 112 56 63 37 12 -19 -47 10 53 18 28 25 33
-45 -34 49 31 48 35 -49 36 -15 -29 20 10 9 16 53 36 58 20 22 93 57 66 48 99 149 88 174 230 308 279 217 118 72 60 38 31 21 -13 12 21 38 64 51 37
16 -26 -34 14 49 28 19 -11 17 44 6 4 -12 21 33 102 22 38 -3 79 59 84 21 99 91 99 178 188 299 250 223 128 77 44 47 40 43 12 -14 -12 24 49 44 174
9 9 2 0 56 31 17 54 -48 24 22 20 34 36 31 56 49 53 9 25 87 58 46 40 110 102 134 148 213 260 205 113 81 45 78 36 93 4 -30 -29 -9 -4 50 133
15 49 33 6 10 29 78 -11 48 20 4 22 8 4 20 11 32 38 43 34 46 62 36 5 129 147 185 201 222 206 197 137 65 71 110 117 125 31 38 16 33 37 62 41
84 20 18 22 19 17 46 63 25 10 34 14 19 20 147 114 16 37 59 47 92 73 53 27 103 274 279 237 154 200 186 163 82 74 106 135 89 53 31 43 73 75 78 77
79 116 62 19 17 65 75 166 120 120 73 48 24 18 168 164 310 62 23 130 160 59 91 68 117 347 344 284 260 247 190 128 67 70 130 157 97 80 64 32 117 124 103 100
63 74 60 40 62 54 44 6 26 63 65 71 31 23 79 114 19 172 135 123 118 72 83 61 142 250 251 233 153 159 149 97 108 144 162 135 145 126 50 46 128 134 99 99
25 50 30 62 27 33 28 24 38 42 -15 30 89 100 40 86 90 98 27 50 68 87 59 72 115 171 201 204 164 155 125 105 151 126 171 73 145 139 64 52 67 74 117 138
242 234 192 149 76 70 73 22 31 73 126 196 249 91 28 61 125 36 43 51 121 173 64 73 111 151 136 164 178 175 157 156 153 157 139 150 170 157 130 87 87 68 73 106
88 97 141 153 91 123 82 53 65 63 42 76 59 35 24 111 59 187 61 109 177 215 79 65 71 97 76 59 50 72 61 85 103 139 173 152 151 127 108 116 88 64 82 78
22 53 94 122 106 56 38 32 35 41 70 87 102 86 104 46 87 14 157 109 394 170 56 88 71 82 83 65 68 78 97 111 141 146 134 134 162 159 126 114 102 98 82 60
11 37 57 60 88 95 51 32 46 67 32 59 67 169 126 136 112 146 116 141 98 22 258 112 133 149 134 141 156 164 161 163 149 166 133 135 123 106 85 75 85 95 93 84
37 46 53 29 63 54 26 85 75 3 50 100 166 95 114 169 182 67 131 269 238 158 54 118 142 221 206 218 181 151 143 142 129 120 103 85 68 64 85 84 79 74 65 73
39 58 33 49 39 51 156 180 157 172 84 71 46 206 311 71 141 82 53 61 67 268 -45 145 236 275 253 230 181 139 119 113 154 154 115 81 79 70 70 65 60 54 61 67
90 51 53 85 69 71 37 45 95 99 194 10 75 65 95 256 86 143 120 63 101 184 82 146 217 274 260 155 132 135 109 153 131 119 115 71 54 95 66 67 73 68 79 80
70 72 67 69 111 167 61 6 32 158 230 154 26 -55 100 81 17 56 158 292 102 109 218 126 233 267 225 148 107 128 143 100 111 110 94 91 109 100 68 60 64 79 91 100
44 48 47 -1 72 51 81 84 70 -3 116 35 141 204 156 28 99 46 67 195 332 186 55 75 202 292 259 157 142 144 124 108 90 65 80 96 105 82 132 161 182 156 141 133
16 -11 34 -11 48 126 157 115 85 53 22 -17 86 123 208 144 101 87 85 104 204 177 231 112 192 303 258 171 169 124 102 69 93 65 48 51 106 102 111 145 203 275 171 150
Wind_Speed
18 22 24 29 27 35 8 56 52 51 29 48 48 54 9 13 19 10 12 18 19 17 11 21 24 16 20 14 14 13 18 18 21 27 23 21 19 10 8 7 4 6 42 47
27 31 31 38 43 45 50 55 11 14 29 41 45 52 53 4 4 9 16 19 22 19 16 26 17 25 21 17 15 11 16 21 28 33 33 31 32 29 27 6 15 9 41 47
23 31 35 19 32 43 25 22 54 56 43 61 62 11 42 39 62 14 11 22 28 25 13 18 18 18 21 19 19 17 18 25 30 31 29 28 20 19 16 30 12 26 40 45
16 26 46 11 9 45 51 35 1 9 50 57 38 54 15 20 22 43 8 19 30 28 27 28 30 19 26 21 20 17 20 22 34 32 25 27 25 24 17 19 28 48 36 13
17 22 3 20 43 3 39 55 57 39 53 40 26 33 22 19 16 23 9 18 23 28 27 24 26 35 26 27 23 21 24 28 35 38 29 29 33 33 38 37 42 47 31 36
26 45 20 24 36 19 24 46 20 6 4 6 16 26 8 35 9 14 8 20 18 17 22 27 40 46 26 25 23 19 25 31 34 39 34 27 42 46 39 24 17 14 11 14
18 17 22 8 28 15 10 4 13 6 4 11 43 36 41 17 9 13 13 14 9 8 20 26 30 40 28 28 25 19 23 27 32 34 37 30 40 49 62 23 25 16 15 8
26 28 11 2 11 35 11 7 6 8 38 51 33 41 38 20 23 25 20 10 12 5 9 24 30 43 35 26 23 18 19 25 35 32 34 34 43 47 32 38 5 4 16 30
26 52 27 18 12 9 26 8 34 29 71 70 63 62 38 24 21 17 10 12 13 7 11 19 28 39 36 35 26 17 21 23 27 32 26 31 32 38 8 26 7 37 36 33
12 28 46 36 18 16 14 48 12 10 24 36 46 51 57 21 21 25 23 13 13 11 10 21 22 31 36 36 27 25 25 27 32 38 31 27 26 35 50 47 20 6 13 15
17 25 34 55 21 24 27 12 20 68 56 59 52 34 41 22 18 24 25 25 11 11 10 14 22 33 33 36 39 23 26 33 30 38 33 30 14 50 54 59 40 34 22 7
15 26 26 23 31 18 23 18 12 20 21 42 53 52 30 29 19 13 22 23 19 14 10 5 24 25 28 29 31 32 20 24 43 39 30 31 27 65 40 43 39 20 6 6
50 40 48 39 55 63 25 14 13 25 19 17 31 40 28 32 34 19 17 12 17 15 10 7 19 20 20 23 27 29 36 30 29 35 28 31 43 59 60 40 25 16 12 8
53 57 53 62 67 43 59 72 68 57 60 67 60 22 24 32 34 42 22 5 9 7 7 7 10 18 17 20 19 20 22 26 37 41 21 18 30 31 29 35 18 11 12 9
49 60 64 80 99 96 84 75 58 75 95 76 80 78 34 22 45 43 55 10 7 6 5 7 8 15 19 23 26 21 21 16 20 14 19 17 18 12 24 32 9 13 14 7
58 72 61 73 82 96 100 92 63 55 44 62 81 79 67 23 6 26 40 32 9 10 6 10 11 19 20 23 25 24 22 18 19 19 20 26 27 12 18 21 25 23 15 10
72 74 76 82 77 91 98 89 92 64 40 34 46 57 66 56 59 50 35 24 28 8 8 15 21 25 24 24 23 21 20 11 12 21 23 30 29 24 17 13 14 18 14 10
75 75 76 92 84 97 93 90 86 91 94 95 94 86 68 51 64 73 83 48 23 20 12 15 18 21 24 22 22 18 18 11 7 17 31 36 38 30 17 12 9 10 8 9
50 62 73 81 89 98 87 85 77 78 84 78 73 83 60 43 41 32 52 46 34 56 44 17 19 22 22 22 22 21 14 7 1 12 19 30 33 29 29 28 27 22 18 13
49 42 52 67 84 103 84 78 67 66 96 69 67 64 57 60 61 52 46 40 29 43 76 14 17 20 18 20 20 13 8 6 3 9 12 24 26 27 28 29 28 27 29 30
63 60 63 73 71 69 79 73 75 70 86 59 59 60 63 61 48 33 49 49 55 70 74 22 17 14 13 16 18 14 9 6 8 10 9 9 10 15 18 21 21 19 19 20
61 65 68 67 75 84 56 58 58 60 62 68 61 58 63 59 56 39 37 35 39 86 47 26 16 12 11 14 15 14 8 7 10 10 10 10 10 11 12 14 16 15 18 19
65 61 68 69 71 66 60 62 67 65 65 58 62 71 80 79 53 48 38 28 38 75 39 30 14 10 9 12 13 13 12 13 12 14 11 9 10 12 12 14 17 18 19 22
75 73 63 70 76 77 69 59 62 66 63 62 48 48 62 59 50 46 47 42 50 71 84 25 25 11 10 15 13 10 12 11 15 13 12 10 10 12 12 14 16 17 20 19
72 77 79 81 83 84 74 65 63 60 66 73 69 64 69 63 65 48 43 46 49 73 60 20 6 12 8 14 13 12 9 8 7 9 12 11 10 9 13 24 23 22 26 25
50 62 74 77 76 75 76 76 70 76 75 73 73 69 71 79 64 59 52 42 48 53 46 38 20 16 10 12 14 13 11 8 2 4 6 7 11 13 15 19 24 30 27 26
Wind_Direction
159 171 175 183 180 211 61 294 311 310 353 331 317 301 12 33 153 118 120 152 152 167 165 141 129 113 111 91 81 78 99 93 107 126 127 123 124 126 129 288 50 315 248 238
183 191 190 207 221 230 256 296 16 7 344 339 322 308 298 41 97 32 135 146 158 157 172 149 148 136 131 115 99 93 96 99 118 131 134 133 135 135 139 192 278 305 254 242
185 196 194 181 208 220 201 215 255 263 325 299 279 245 320 304 275 312 146 163 161 157 162 169 163 155 144 132 119 116 115 115 121 123 125 130 118 121 125 152 138 150 164 250
184 195 213 197 353 224 236 215 14 3 316 296 338 316 326 342 337 214 157 163 167 160 161 167 170 160 153 142 131 123 129 124 137 133 123 131 132 133 132 135 152 175 159 185
191 192 311 203 215 171 220 256 263 328 310 237 233 329 15 63 143 165 128 159 165 163 162 166 172 169 158 149 140 131 137 139 144 144 133 137 145 146 156 154 160 168 149 156
209 223 214 308 305 259 205 229 207 302 334 315 210 319 354 332 36 38 149 157 164 171 165 165 170 171 162 153 146 137 144 147 150 154 147 138 159 170 157 142 137 140 133 142
194 196 197 261 316 325 315 199 333 348 193 356 340 304 295 27 39 92 39 51 147 161 175 161 154 164 167 157 152 145 149 151 153 157 158 152 163 175 212 151 154 148 144 142
339 330 214 190 210 309 300 201 217 337 321 312 329 316 332 3 356 330 332 358 18 139 171 174 165 170 165 163 162 155 156 156 156 157 163 163 170 176 261 267 256 182 294 289
328 311 3 356 337 328 312 290 288 232 268 282 293 298 325 345 7 357 7 46 30 41 159 165 167 167 163 160 165 168 160 156 157 159 158 163 166 172 204 227 250 277 282 292
293 313 307 325 340 318 295 289 291 299 320 317 312 315 299 357 12 11 19 33 70 73 129 163 165 164 162 162 167 163 162 159 156 158 162 163 163 170 186 188 182 219 292 296
289 297 304 293 321 321 315 280 277 275 293 300 308 325 324 335 339 335 349 354 41 69 91 155 163 166 164 162 157 167 163 161 163 163 160 165 185 185 193 205 184 184 288 310
299 287 283 280 296 284 304 296 253 282 292 299 300 294 358 350 345 21 351 1 24 45 44 88 157 162 166 167 170 167 182 169 168 168 163 167 168 240 180 186 185 179 235 233
304 305 303 298 292 253 272 243 247 280 281 280 296 303 319 322 339 349 350 22 3 4 44 61 145 148 166 174 171 173 165 165 170 168 168 167 179 197 203 188 180 182 185 230
303 293 291 291 283 295 295 276 272 284 287 283 272 281 320 328 302 258 310 122 41 31 38 63 142 154 162 173 192 188 187 174 170 174 176 177 178 180 184 188 187 198 182 205
300 291 285 282 268 267 277 282 285 279 270 280 268 262 306 318 308 311 310 186 118 47 63 98 120 146 158 159 169 191 225 199 184 216 193 196 192 210 187 190 205 192 192 249
299 296 292 284 282 273 270 271 286 278 288 283 266 258 277 323 6 318 308 284 327 127 106 122 128 131 146 154 156 164 181 202 251 254 260 191 278 261 198 198 199 200 211 253
293 292 293 285 286 280 272 269 267 277 266 248 251 231 286 284 289 301 293 306 189 194 168 149 142 139 142 149 149 153 161 188 241 272 273 275 279 281 280 210 211 204 211 231
288 286 285 283 285 276 275 273 276 275 277 276 282 285 297 292 291 282 275 293 243 215 200 166 153 144 139 139 144 145 146 161 208 279 281 279 280 286 286 278 242 216 251 250
287 285 283 280 279 279 279 275 279 283 279 287 286 289 286 295 299 279 291 293 280 285 236 163 160 145 141 139 136 135 130 122 334 294 289 283 284 289 293 297 301 308 312 312
304 295 283 282 280 274 282 281 285 292 273 286 289 287 294 285 283 281 294 297 295 185 224 206 178 147 147 141 134 132 122 93 24 323 306 292 293 294 295 299 304 311 313 316
299 298 294 288 285 287 285 287 284 281 273 286 296 292 289 286 298 295 292 294 283 253 218 173 189 172 167 153 140 135 121 89 38 17 12 352 336 319 313 314 321 335 338 336
301 298 291 289 287 282 316 299 283 289 298 282 281 286 290 292 294 299 320 315 277 244 180 162 161 163 176 172 153 138 120 84 61 39 30 32 22 6 354 351 354 3 354 352
302 303 299 295 289 300 309 298 292 290 290 292 284 278 279 284 297 295 291 296 285 265 239 128 158 183 189 187 171 150 124 107 89 81 54 45 40 1 4 5 354 354 354 345
290 293 304 297 288 289 300 300 299 286 291 294 302 289 287 274 289 298 287 285 268 268 279 196 150 200 207 187 185 182 145 120 102 83 71 51 21 8 15 13 9 359 347 351
281 286 271 264 282 286 288 300 297 292 289 287 279 288 289 275 276 294 296 279 277 276 283 315 176 213 210 188 194 183 184 144 108 82 75 67 30 26 352 333 337 341 337 338
294 259 287 273 291 291 286 288 299 292 283 282 275 280 284 273 277 281 288 289 273 266 274 276 238 225 219 207 204 203 214 211 236 319 41 19 2 346 342 334 330 332 340 336